(298249) = 2002 VZ53

Discovered at Socorro on 2002-11-06 by LINEAR.

Orbit

Orbit type: Main Belt

Note: WebGL enabled browser required.

epoch2023-02-25.0
epoch JD2460000.5
perihelion date2020-11-09.01950
perihelion JD2459162.51950
argument of perihelion (°)3.88518
ascending node (°)8.49706
inclination (°)13.44833
eccentricity0.1205325
perihelion distance (AU)2.4242093
Tisserand w.r.t. Jupiter3.3
ΔV w.r.t. Earth (km/sec)10.6
semimajor axis (AU)2.7564512
mean anomaly (°)180.47302
mean daily motion (°/day)0.21536660
aphelion distance (AU)3.089
period (years)4.58
P-vector [x]0.97701329
P-vector [y]0.18878400
P-vector [z]0.09902336
Q-vector [x]-0.21039045
Q-vector [y]0.77901851
Q-vector [z]0.59064881
absolute magnitude16.32
phase slope0.15
uncertainty0
referenceMPO 745323
observations used366
oppositions14
arc length (days)8448
first opposition used2000
last opposition used2023
residual rms (arc-secs)0.77
perturbers coarse indicatorM-v
perturbers precise indicator003Ek
first observation date used2000-03-30.0
last observation date used2023-05-17.0
computer nameMPCLINUX
JD of orbit computation2456789.165085
perihelion JD uncertainty (days)8.6568E-05
argument of perihelion uncertainty (°)2.6807E-05
ascending node uncertainty (°)1.8652E-05
inclination uncertainty (°)1.0214E-05
eccentricity uncertainty 1.0847E-07
perihelion distance uncertainty (AU)3.0681E-07
Minimum Orbit Intersection Distances (in AU)
for orbit epoch: 2460000.5, reference: E2023-K51
Mercury2.06965
Venus1.70041
Earth1.42262
Mars1.01718
Jupiter2.36551
Saturn6.34385
Uranus15.3819
Neptune27.4332

Observations

372 total observations over interval: 2000 03 30.27376 – 2023 05 17.306042
These data are available for download (format description).

Date (UT) J2000 RA J2000 Dec Magn Location Ref
2000 03 30.27376 12 37 56.52 -04 40 19.8 20.6 V 691 – Steward Observatory, Kitt Peak-Spacewatch MPS 281233
2000 03 30.29453 12 37 55.34 -04 40 17.1 20.7 V 691 – Steward Observatory, Kitt Peak-Spacewatch MPS 281233
2000 03 30.31556 12 37 54.12 -04 40 14.7 20.8 V 691 – Steward Observatory, Kitt Peak-Spacewatch MPS 281233
2002 10 05.33107 02 39 04.35 +24 27 14.0 19.1   704 – Lincoln Laboratory ETS, New Mexico MPS 83076
2002 10 05.34688 02 39 03.70 +24 27 18.3 20.0   704 – Lincoln Laboratory ETS, New Mexico MPS 83076
2002 10 05.36288 02 39 02.91 +24 27 23.6 19.7   704 – Lincoln Laboratory ETS, New Mexico MPS 83076
2002 10 05.37867 02 39 02.18 +24 27 28.2 19.7   704 – Lincoln Laboratory ETS, New Mexico MPS 83076
2002 11 01.28582 02 12 24.59 +25 35 04.5 19.9   644 – Palomar Mountain/NEAT MPS 83076
2002 11 01.30697 02 12 23.07 +25 35 05.3 19.6   644 – Palomar Mountain/NEAT MPS 83076
2002 11 01.32807 02 12 21.65 +25 35 05.3 19.5   644 – Palomar Mountain/NEAT MPS 83076
2002 11 06.25808 02 06 58.29 +25 34 01.0 19.5   704 – Lincoln Laboratory ETS, New Mexico MPS 66447
2002 11 06.27517 02 06 57.11 +25 34 00.5 19.4   704 – Lincoln Laboratory ETS, New Mexico MPS 66447
2002 11 06.28032 02 06 56.74 +25 34 00.3 19.1 R 699 – Lowell Observatory-LONEOS MPS 70025
2002 11 06.29227 02 06 55.98 +25 34 00.0 19.9   704 – Lincoln Laboratory ETS, New Mexico MPS 66447
2002 11 06.29872 02 06 55.49 +25 33 58.8   699 – Lowell Observatory-LONEOS MPS 70025
2002 11 06.31700 02 06 54.19 +25 33 58.3   699 – Lowell Observatory-LONEOS MPS 70025
2002 11 06.33536 02 06 53.04 +25 33 58.0   699 – Lowell Observatory-LONEOS MPS 70025
2002 11 07.27572 02 05 53.01 +25 33 19.9 18.8   704 – Lincoln Laboratory ETS, New Mexico MPS 66447
2002 11 07.29294 02 05 51.98 +25 33 19.1 19.5   704 – Lincoln Laboratory ETS, New Mexico MPS 66447
2002 11 07.31016 02 05 50.75 +25 33 18.0 19.1   704 – Lincoln Laboratory ETS, New Mexico MPS 66447
2002 11 07.34453 02 05 48.56 +25 33 18.4 19.5   704 – Lincoln Laboratory ETS, New Mexico MPS 66447
2002 11 24.07337 01 50 46.92 +25 09 03.5 19.8   644 – Palomar Mountain/NEAT MPS 68237
2002 11 24.09431 01 50 46.01 +25 09 01.7 20.1   644 – Palomar Mountain/NEAT MPS 68237
2002 11 24.11520 01 50 45.11 +25 08 59.2 19.8   644 – Palomar Mountain/NEAT MPS 68237
2002 12 02.22664 01 46 07.39 +24 54 05.3 19.9   704 – Lincoln Laboratory ETS, New Mexico MPS 68237
2002 12 02.24189 01 46 07.00 +24 54 03.7 19.6   704 – Lincoln Laboratory ETS, New Mexico MPS 68237
2002 12 02.27275 01 46 06.07 +24 54 01.0 19.7   704 – Lincoln Laboratory ETS, New Mexico MPS 68237
2004 03 16.10878 09 50 10.55 +25 15 59.1 22.1 V 691 – Steward Observatory, Kitt Peak-Spacewatch MPS 445871
2004 03 16.13580 09 50 09.34 +25 15 55.5 21.6 V 691 – Steward Observatory, Kitt Peak-Spacewatch MPS 445871
2004 03 16.16257 09 50 08.24 +25 15 51.9 21.7 V 691 – Steward Observatory, Kitt Peak-Spacewatch MPS 445871
2009 03 01.34070 12 20 38.94 +02 17 22.5   691 – Steward Observatory, Kitt Peak-Spacewatch MPS 281233
2009 03 01.35833 12 20 38.10 +02 17 24.5   691 – Steward Observatory, Kitt Peak-Spacewatch MPS 281233
2009 03 01.37598 12 20 37.22 +02 17 27.0   691 – Steward Observatory, Kitt Peak-Spacewatch MPS 281233
2009 03 03.32876 12 19 05.99 +02 21 28.3 20.9 V 691 – Steward Observatory, Kitt Peak-Spacewatch MPS 281233
2009 03 03.34662 12 19 05.10 +02 21 30.5 21.1 V 691 – Steward Observatory, Kitt Peak-Spacewatch MPS 281233
2009 03 03.36427 12 19 04.25 +02 21 33.1 20.6 V 691 – Steward Observatory, Kitt Peak-Spacewatch MPS 281233
2009 04 02.24652 11 52 18.22 +03 26 07.2 21.0 V G96 – Mt. Lemmon Survey MPS 282500
2009 04 02.25537 11 52 17.79 +03 26 08.1 20.5 V G96 – Mt. Lemmon Survey MPS 282500
2009 04 02.26432 11 52 17.29 +03 26 09.1 21.2 V G96 – Mt. Lemmon Survey MPS 282500
2009 04 02.27323 11 52 16.82 +03 26 09.8 21.0 V G96 – Mt. Lemmon Survey MPS 282500
2009 04 17.31198 11 40 46.41 +03 40 01.3   291 – LPL/Spacewatch II MPS 283720
2009 04 17.31590 11 40 46.23 +03 40 01.5   291 – LPL/Spacewatch II MPS 283720
2009 04 17.31977 11 40 46.07 +03 40 01.3   291 – LPL/Spacewatch II MPS 283720
2009 04 26.20616 11 35 52.33 +03 37 13.4 21.2 V G96 – Mt. Lemmon Survey MPS 285651
2009 04 26.21166 11 35 52.15 +03 37 13.7 21.2 V G96 – Mt. Lemmon Survey MPS 285651
2009 04 26.22220 11 35 51.82 +03 37 12.9 21.4 V G96 – Mt. Lemmon Survey MPS 285651
2009 04 26.22760 11 35 51.68 +03 37 12.7 21.3 V G96 – Mt. Lemmon Survey MPS 285651
2011 07 05.58611 01 08 36.120 +02 46 36.85 21.4 w F51 – Pan-STARRS 1, Haleakala MPS 386280
2011 07 05.59008 01 08 36.361 +02 46 39.16 21.4 w F51 – Pan-STARRS 1, Haleakala MPS 386280
2011 07 05.59404 01 08 36.591 +02 46 41.25 21.6 w F51 – Pan-STARRS 1, Haleakala MPS 386280
2011 07 05.59799 01 08 36.824 +02 46 43.36 21.5 w F51 – Pan-STARRS 1, Haleakala MPS 386280
2011 09 18.45021 01 26 40.45 +10 36 56.5 19.6 V G96 – Mt. Lemmon Survey MPS 391068
2011 09 18.45603 01 26 40.20 +10 36 57.5 19.5 V G96 – Mt. Lemmon Survey MPS 391068
2011 09 18.46186 01 26 39.94 +10 36 58.6 19.5 V G96 – Mt. Lemmon Survey MPS 391068
2011 09 18.46760 01 26 39.62 +10 36 59.3 19.6 V G96 – Mt. Lemmon Survey MPS 391068
2011 09 22.23088 01 23 43.33 +10 46 47.9   691 – Steward Observatory, Kitt Peak-Spacewatch MPS 391068
2011 09 22.24867 01 23 42.42 +10 46 50.7   691 – Steward Observatory, Kitt Peak-Spacewatch MPS 391068
2011 09 22.26646 01 23 41.52 +10 46 53.2   691 – Steward Observatory, Kitt Peak-Spacewatch MPS 391068
2011 09 25.29178 01 21 05.44 +10 53 39.8 19.1   704 – Lincoln Laboratory ETS, New Mexico MPS 392600
2011 09 25.30434 01 21 04.80 +10 53 40.4 19.7   704 – Lincoln Laboratory ETS, New Mexico MPS 392600
2011 09 25.31688 01 21 04.06 +10 53 42.5 20.2   704 – Lincoln Laboratory ETS, New Mexico MPS 392600
2011 09 25.32950 01 21 03.27 +10 53 43.3 19.6   704 – Lincoln Laboratory ETS, New Mexico MPS 392600
2011 09 25.34208 01 21 02.61 +10 53 46.0 19.9   704 – Lincoln Laboratory ETS, New Mexico MPS 392600
2011 09 26.19227 01 20 16.95 +10 55 26.5 19.7 V 691 – Steward Observatory, Kitt Peak-Spacewatch MPS 392600
2011 09 26.19986 01 20 16.57 +10 55 27.5 19.6 V 691 – Steward Observatory, Kitt Peak-Spacewatch MPS 392600
2011 09 26.21001 01 20 16.00 +10 55 28.6 19.8 V 691 – Steward Observatory, Kitt Peak-Spacewatch MPS 392600
2011 09 26.21760 01 20 15.59 +10 55 29.8 19.6 V 691 – Steward Observatory, Kitt Peak-Spacewatch MPS 392600
2011 09 26.22519 01 20 15.16 +10 55 30.6 19.8 V 691 – Steward Observatory, Kitt Peak-Spacewatch MPS 392600
2011 09 26.23029 01 20 14.86 +10 55 31.2 19.6 V 691 – Steward Observatory, Kitt Peak-Spacewatch MPS 392600
2011 09 27.29773 01 19 15.88 +10 57 34.0 19.7   704 – Lincoln Laboratory ETS, New Mexico MPS 392600
2011 09 27.32321 01 19 14.37 +10 57 37.1 20.0   704 – Lincoln Laboratory ETS, New Mexico MPS 392600
2011 09 27.33597 01 19 13.72 +10 57 38.0 20.0   704 – Lincoln Laboratory ETS, New Mexico MPS 392600
2011 09 27.34871 01 19 12.93 +10 57 39.2 19.4   704 – Lincoln Laboratory ETS, New Mexico MPS 392600
2011 09 30.19227 01 16 30.86 +11 02 29.9 19.7 V 691 – Steward Observatory, Kitt Peak-Spacewatch MPS 392600
2011 09 30.21002 01 16 29.80 +11 02 31.5 19.5 V 691 – Steward Observatory, Kitt Peak-Spacewatch MPS 392600
2011 09 30.22779 01 16 28.73 +11 02 33.4 19.6 V 691 – Steward Observatory, Kitt Peak-Spacewatch MPS 392600
2011 10 01.53151 01 15 11.526 +11 04 31.19 20.3 g F51 – Pan-STARRS 1, Haleakala MPS 394196
2011 10 01.54422 01 15 10.705 +11 04 32.53 19.9 g F51 – Pan-STARRS 1, Haleakala MPS 394196
2011 10 01.55760 01 15 09.877 +11 04 33.71 19.2 r F51 – Pan-STARRS 1, Haleakala MPS 394196
2011 10 01.56962 01 15 09.134 +11 04 34.63 19.4 r F51 – Pan-STARRS 1, Haleakala MPS 394196
2011 10 16.36648 00 59 48.12 +11 16 55.1 19.3 V 703 – Catalina Sky Survey MPS 396185
2011 10 16.37462 00 59 47.61 +11 16 55.1 20.3 V 703 – Catalina Sky Survey MPS 396185
2011 10 16.38303 00 59 47.00 +11 16 55.6 19.2 V 703 – Catalina Sky Survey MPS 396185
2011 10 16.39148 00 59 46.57 +11 16 55.7 19.8 V 703 – Catalina Sky Survey MPS 396185
2011 10 21.20271 00 54 53.71 +11 18 15.6 19.2 V G96 – Mt. Lemmon Survey MPS 396185
2011 10 21.21265 00 54 53.10 +11 18 15.8 19.1 V G96 – Mt. Lemmon Survey MPS 396185
